Regional Weather Roundup
Issued by NWS

Home | Current Version | Previous Version | Graphics & Text | Print | Product List | Glossary On
Versions: 1 2 3 4 5 6 7 8 9 10 11 12 13 14 15 16 17 18 19 20 21 22 23 24 25 26 27 28 29 30 31 32 33 34 35 36 37 38 39 40 41 42 43 44 45 46 47 48 49 50
000
ASUS43 KOAX 281310
RWRNE

WEATHER ROUNDUP FOR NEBRASKA
NATIONAL WEATHER SERVICE OMAHA NE
800 AM CDT THU MAY 28 2015

NOTES: SATELLITE DATA IS BEING USED TO AUGMENT CLOUD COVER ABOVE
       12000 FEET.
       "FAIR" INDICATES FEW OR NO CLOUDS BELOW 12,000 FEET WITH NO
       SIGNIFICANT WEATHER AND/OR OBSTRUCTIONS TO VISIBILITY.

  * THESE STATIONS DO NOT REPORT WEATHER SUCH AS RAIN...SNOW OR FOG.

NEZ001>004-019>022-054>056-281400-
NEBRASKA PANHANDLE

CITY           SKY/WX    TMP DP  RH WIND       PRES   REMARKS
SCOTTSBLUFF    MOSUNNY   56  53  90 CALM      30.00F
ALLIANCE       PTSUNNY   56  54  93 S5        30.00R
CHADRON        PTSUNNY   58  54  86 SW7       29.96S
KIMBALL          N/A    N/A N/A N/A MISG        N/A
SIDNEY         CLOUDY    56  54  93 NW9       30.02F
$$

NEZ057>060-069>072-079>082-281400-
SOUTHWEST NEBRASKA

CITY           SKY/WX    TMP DP  RH WIND       PRES   REMARKS
NORTH PLATTE   FOG       56  56 100 E6        30.00F VSB 1/2
IMPERIAL       PTSUNNY   56  54  93 SE7       30.00F
LEXINGTON      FOG       58  58  97 CALM      30.02S VSB 1/4
MCCOOK         CLOUDY    56  54  93 SE3       30.01F
OGALLALA       PTSUNNY   57  56  94 S5        29.99F
$$

NEZ005>010-023>029-035>040-094-281400-
NORTH CENTRAL NEBRASKA

CITY           SKY/WX    TMP DP  RH WIND       PRES   REMARKS
VALENTINE      MOSUNNY   62  55  77 S12       29.98S
AINSWORTH      MOSUNNY   62  60  94 S10       29.98F
BROKEN BOW     FOG       60  58  92 CALM      30.01F VSB 1/4
O`NEILL        MOSUNNY   63  59  86 S8        30.01F
ORD            PTSUNNY   60  57  89 SE5       30.01F
THEDFORD       MOSUNNY   59  57  94 SE10      29.99F
$$

NEZ041-046>049-061>064-073>077-083>087-281400-
SOUTH CENTRAL NEBRASKA

CITY           SKY/WX    TMP DP  RH WIND       PRES   REMARKS
GRAND ISLAND   CLOUDY    64  58  80 SE7       30.04S
AURORA         CLOUDY    63  59  89 SE7       30.06R
HASTINGS       CLOUDY    63  57  81 SE7       30.04S
HEBRON         CLOUDY    64  60  88 SE5       30.05S
HOLDREGE       CLOUDY    59  57  93 E3        30.02F
KEARNEY *      CLOUDY    61  57  88 SE7       30.04S
YORK           CLOUDY    64  59  82 SE8       30.06F
$$

NEZ011>018-030>034-042>045-281400-
NORTHEAST NEBRASKA

CITY           SKY/WX    TMP DP  RH WIND       PRES   REMARKS
NORFOLK        PTSUNNY   67  56  67 S12       30.04S
ALBION         PTSUNNY   64  56  76 SE7       30.04F
BLAIR          CLOUDY    66  53  64 S14       30.08R
COLUMBUS *     CLOUDY    64  55  72 S14G21    30.07S
FREMONT        CLOUDY    66  55  68 SE8       30.07S
TEKAMAH        PTSUNNY   64  57  78 SE7       30.07S
WAYNE          PTSUNNY   65  56  72 S14       30.05S
$$

NEZ050>053-065>068-078-088>093-281400-
SOUTHEAST NEBRASKA

CITY           SKY/WX    TMP DP  RH WIND       PRES   REMARKS
LINCOLN        LGT RAIN  63  62  97 S8        30.06F FOG
OMAHA EPPLEY   CLOUDY    66  56  70 S9        30.08R
BEATRICE       LGT RAIN  62  61  96 SE7       30.06F
NEBRASKA CITY  LGT RAIN  62  58  87 S5        30.10S
PLATTSMOUTH    CLOUDY    64  55  74 SE7       30.09F
$$

NEZ044-045-051>053-067-281400-
OMAHA AREA

CITY           SKY/WX    TMP DP  RH WIND       PRES   REMARKS
OMAHA EPPLEY   CLOUDY    66  56  70 S9        30.08R
BLAIR          CLOUDY    66  53  64 S14       30.08R
FREMONT        CLOUDY    66  55  68 SE8       30.07S
MILLARD        CLOUDY    65  57  76 SE5       30.07F
OFFUTT AFB     CLOUDY    64  57  76 SE7       30.07S
PLATTSMOUTH    CLOUDY    64  55  74 SE7       30.09F
WAHOO          FAIR      65  58  77 S6        30.07S
$$


USA.gov is the U.S. government's official web portal to all federal, state and local government web resources and services.